Retour au catalogue

ARCSTONE

ActifScienceSSO
NORAD 64540·PAYLOAD·🇺🇸 United States

Lancé Jun 23, 2025 depuis Vandenberg Space Force Base

Loading…

Prochains Passages (prochaines 24 heures)

TLE

FraisSource: Space-Track

Époque: Sep 14, 2026, 14:26 UTC

1 64540U 25135N   26257.60174876  .00017063  00000-0  49447-3 0  9994
2 64540  97.4697  16.0923 0002244 204.5100 155.6037 15.35625452 68748

Suivez ARCSTONE en temps réel avec AllMySat

Download on the App Store